Simultaneous Nadir Overpasses (SNOs) Predictions

Prediction of SNOs between NOAA-19 and TERRA Satellite Orbit:

Table of predicted SNOs for the next 14.0 days since TLE Epoch: 7/14/2013
Index Date (NOAA-19) Time (NOAA-19) Lat,Lon (NOAA-19) SZA (NOAA-19 ) Date (TERRA) Time (TERRA) Lat,Lon (TERRA) SZA (TERRA ) Distance(km) Time Diff (sec)
1 07/14/2013 22:05:01 -69.61, 28.79 132.03 07/14/2013 22:05:58 -69.61, 28.74 132.04 1.87 57
2 07/14/2013 22:55:57 69.50,-163.78 47.86 07/14/2013 22:55:25 69.50,-163.76 47.86 0.84 32
3 07/17/2013 02:49:19 -69.62, -42.29 131.66 07/17/2013 02:50:13 -69.61, -42.32 131.67 1.54 54
4 07/17/2013 03:40:15 69.51, 125.14 48.23 07/17/2013 03:39:40 69.50, 125.17 48.22 1.72 35
5 07/19/2013 07:33:37 -69.64,-113.37 131.26 07/19/2013 07:34:27 -69.66,-113.32 131.24 2.96 50
6 07/19/2013 08:24:32 69.48, 54.13 48.59 07/19/2013 08:23:55 69.49, 54.09 48.60 1.62 37
7 07/21/2013 12:17:54 -69.61, 175.61 130.87 07/21/2013 12:18:42 -69.64, 175.58 130.85 2.69 48
8 07/21/2013 13:08:50 69.51, -16.97 49.03 07/21/2013 13:08:09 69.52, -16.93 49.04 2.00 41
9 07/23/2013 17:02:12 -69.65, 104.50 130.39 07/23/2013 17:02:56 -69.65, 104.55 130.39 2.10 44
10 07/23/2013 17:53:07 69.48, -88.00 49.46 07/23/2013 17:52:24 69.48, -88.04 49.45 1.95 43
11 07/25/2013 21:46:29 -69.64, 33.45 129.93 07/25/2013 21:47:10 -69.66, 33.50 129.91 2.74 41
12 07/25/2013 22:37:24 69.47,-159.04 49.91 07/25/2013 22:36:38 69.48,-159.10 49.92 2.79 46
13 07/28/2013 02:30:46 -69.64, -37.60 129.43 07/28/2013 02:31:24 -69.65, -37.57 129.42 1.68 38
14 07/28/2013 03:21:42 69.51, 129.84 50.45 07/28/2013 03:20:51 69.52, 129.90 50.46 2.62 51




NCC Satellite Simultaneous Nadir Overpasses (SNOs) Prediction Service
